Theta_e
323 325 326 327 327 327 328 328 327 326 324 321 318 316 313 312 314 315 317 315 311 308 305 299 297 296 296 295 295 295 294 293 293 293 293 293 293 293 293 293 293 292 293
323 324 325 326 326 328 328 326 325 324 323 321 319 316 313 312 317 313 314 314 311 307 303 297 297 296 295 295 294 294 293 293 294 294 293 291 293 293 293 293 293 293 293
322 323 324 326 327 327 327 326 324 323 322 320 318 316 314 311 311 312 311 311 310 307 302 297 298 297 296 295 295 295 295 294 294 295 296 291 294 292 293 293 293 293 293
320 321 323 325 326 327 326 327 324 323 322 320 318 317 313 311 311 313 311 310 309 308 304 298 298 298 296 296 296 295 296 296 294 294 295 296 295 292 292 293 293 293 293
316 319 322 323 325 325 326 326 325 323 321 319 318 317 314 314 311 311 308 308 307 308 305 299 298 298 297 297 296 295 295 296 296 296 294 294 294 293 291 289 291 292 293
307 316 320 321 322 324 324 325 325 322 320 318 316 316 314 313 310 309 308 306 305 305 305 302 299 299 298 298 297 296 296 296 296 296 297 298 296 293 292 288 288 291 292
301 301 309 320 321 322 323 324 325 321 320 317 316 315 312 313 312 309 309 306 301 302 305 304 301 300 299 298 298 296 296 296 297 296 296 297 297 297 295 293 289 289 290
295 294 294 295 297 306 321 322 324 322 319 318 316 316 315 313 312 312 309 306 305 305 305 305 303 301 300 299 298 297 296 297 297 296 296 296 296 296 296 296 293 285 288
290 291 291 290 291 295 299 317 323 323 319 319 316 315 315 313 312 312 311 309 305 305 305 306 305 302 300 299 298 298 297 296 297 296 296 296 296 295 295 295 295 295 284
288 288 288 288 288 291 294 303 314 324 321 319 317 316 315 314 312 311 310 308 306 307 307 307 305 304 302 299 298 298 297 296 297 296 295 296 296 295 295 294 294 293 292
286 286 287 287 287 289 290 293 301 307 322 320 317 316 315 314 314 315 312 311 307 307 309 309 307 304 302 301 299 298 297 297 297 296 296 296 296 295 294 294 293 292 291
284 284 284 285 286 286 287 289 291 295 302 313 320 315 316 315 314 314 311 308 309 307 307 308 306 305 304 301 299 298 298 298 296 296 295 295 295 295 294 293 293 292 291
283 283 282 283 284 285 285 286 288 289 294 303 314 319 315 315 314 313 310 308 308 309 308 307 306 305 304 301 299 299 297 297 297 297 296 295 295 294 293 293 292 291 290
282 282 281 282 282 283 284 285 286 287 289 296 305 316 318 315 313 310 311 314 311 307 307 309 308 307 304 302 301 297 297 297 296 297 296 296 295 295 294 293 292 291 289
280 280 280 280 280 282 282 283 284 285 287 291 297 303 313 316 313 310 308 312 309 306 304 304 303 301 300 299 299 297 296 296 295 295 296 296 296 296 295 294 292 290 289
279 279 279 280 279 280 281 282 283 284 286 289 293 298 305 312 313 312 309 310 310 308 304 305 303 302 301 302 302 301 297 295 294 294 294 294 294 294 293 293 292 292 290
278 278 278 279 279 279 280 281 282 283 285 288 291 294 299 307 311 310 309 309 305 304 306 303 302 302 301 301 300 298 297 296 295 294 293 293 292 292 292 290 291 289 289
277 277 277 277 278 278 280 280 281 283 284 287 288 290 293 298 307 306 308 308 307 305 303 302 302 302 301 301 301 299 297 295 294 293 293 292 292 292 291 290 289 288 287
277 276 276 277 277 278 279 279 281 282 283 284 285 286 289 293 298 304 304 304 302 301 300 301 300 299 299 299 298 295 294 293 293 292 291 290 290 292 290 289 289 288 287
276 276 277 276 277 278 278 279 280 281 282 282 283 285 288 291 294 299 302 303 302 303 302 300 300 301 299 298 296 295 295 292 291 290 291 291 290 290 289 289 288 288 288
275 276 276 276 277 277 278 279 279 280 281 281 282 284 287 290 292 296 299 301 300 300 299 299 298 298 298 297 297 294 294 294 291 290 288 288 289 290 290 289 288 288 288
275 275 276 276 277 277 278 278 279 279 280 281 282 283 286 289 291 294 297 298 298 297 295 295 294 294 295 295 294 294 293 292 291 290 290 290 289 289 290 288 288 287 287
274 275 276 276 277 277 278 278 278 279 279 280 281 283 285 288 291 292 294 295 294 294 292 291 291 291 292 292 294 294 293 290 290 290 290 288 289 290 290 287 287 286 285
274 275 276 276 277 277 278 278 278 279 279 279 280 282 284 287 289 290 290 291 291 291 290 289 289 290 290 290 292 294 292 290 289 289 288 288 289 290 289 287 285 284 283
275 275 276 276 276 277 277 278 278 278 278 279 279 282 284 286 287 288 289 289 290 291 290 290 290 289 289 290 292 294 291 289 288 287 288 289 288 286 285 284 283 280 280
273 274 275 275 276 276 277 278 279 278 278 279 280 281 283 285 286 286 287 288 288 289 289 290 291 290 291 291 292 292 290 289 288 288 288 286 283 282 282 282 280 280 279
Wind_Speed
8 16 22 18 24 18 22 26 30 34 36 33 28 25 28 35 41 38 43 42 41 39 38 38 35 34 34 34 31 28 27 24 22 20 10 8 8 10 10 11 9 9 6
9 10 16 23 25 25 25 30 32 36 36 37 31 28 34 27 41 37 38 41 40 40 39 39 37 35 34 32 32 32 29 22 26 8 9 2 4 11 12 12 11 11 8
11 11 12 19 22 24 27 28 32 37 34 32 29 30 30 27 29 33 34 38 40 40 40 39 37 36 35 34 34 32 29 23 27 14 6 3 3 3 9 13 13 13 11
8 9 13 14 21 21 24 25 28 34 30 37 33 39 27 26 27 41 37 40 39 39 39 39 37 36 36 35 35 32 29 24 30 15 7 5 5 3 1 7 13 15 13
3 10 14 22 26 27 27 28 29 31 31 35 38 37 31 31 33 36 35 38 39 39 40 40 36 36 36 35 35 34 31 24 26 19 12 8 6 5 3 2 5 15 15
8 7 14 12 13 21 24 27 29 31 34 32 30 33 36 34 34 32 36 36 38 39 39 37 37 37 37 36 36 36 33 28 21 27 14 11 6 7 5 3 3 5 10
11 13 10 8 15 19 22 25 28 28 35 33 32 29 30 38 41 40 37 36 30 37 40 40 39 39 39 39 36 36 33 34 27 22 24 16 11 6 9 6 4 3 5
12 13 11 9 11 4 20 21 26 27 35 34 35 34 34 33 34 39 37 38 42 45 43 43 42 41 40 39 37 37 37 35 31 25 21 20 16 12 9 7 8 1 4
12 13 12 15 16 13 10 13 23 24 30 34 32 32 32 31 30 35 36 41 35 36 42 42 41 40 40 38 41 41 38 37 34 31 25 21 19 17 14 11 10 6 3
14 14 12 15 17 16 13 7 6 27 29 32 32 34 34 34 30 29 32 32 35 36 35 37 40 40 40 40 40 38 39 38 34 34 31 25 21 20 17 15 14 12 9
12 12 11 17 19 18 18 16 11 9 21 32 31 36 32 27 27 27 30 32 30 34 34 35 38 42 40 39 39 41 42 38 37 37 34 29 25 23 20 18 16 14 12
11 11 12 17 19 20 20 20 18 12 7 3 22 27 31 30 29 30 32 32 33 32 33 35 36 37 39 41 42 44 41 39 42 38 35 32 28 25 23 21 19 17 15
13 13 13 14 18 20 20 20 19 17 12 6 6 23 27 31 33 35 33 32 34 34 36 33 35 37 36 38 41 42 44 42 43 40 39 37 32 30 27 25 23 19 17
14 12 13 14 19 20 20 20 20 18 16 11 5 6 27 30 31 31 33 30 29 32 34 34 35 33 35 36 38 41 42 41 41 41 41 40 37 36 32 29 26 21 20
15 15 16 14 18 21 22 21 20 19 20 14 10 7 9 31 32 30 31 33 34 34 36 36 33 33 34 35 35 35 36 38 39 40 40 40 40 37 33 31 28 25 23
16 17 17 16 17 22 22 22 21 21 19 15 14 12 6 23 35 34 33 32 32 34 31 26 30 32 33 34 33 32 33 36 37 39 39 40 39 37 34 30 29 26 26
17 17 16 13 19 21 22 22 22 20 17 15 14 12 12 2 28 33 31 31 32 33 33 33 32 30 32 32 31 32 32 31 34 37 40 40 39 37 33 31 27 25 22
16 15 14 20 21 21 21 23 21 17 15 15 15 16 15 13 4 27 32 33 33 33 33 31 29 29 32 31 31 30 30 31 31 34 37 38 39 37 35 30 26 23 22
12 16 20 21 22 20 20 20 18 17 15 16 15 17 15 15 11 17 24 29 29 29 31 31 32 34 32 30 29 29 30 30 30 29 30 32 34 34 34 34 29 24 21
18 18 20 21 18 20 20 17 16 16 16 18 19 16 14 13 11 6 18 24 26 28 28 29 29 28 28 28 28 28 29 27 26 25 25 25 26 30 31 34 32 29 27
18 19 18 17 18 18 18 15 15 14 17 19 20 17 14 12 10 6 9 18 23 24 25 25 25 26 27 26 24 27 29 29 26 25 25 25 25 27 32 33 33 32 26
20 18 16 17 18 17 15 14 13 18 20 19 18 16 14 11 9 6 7 12 18 21 21 21 21 22 22 21 22 29 30 25 23 22 23 23 24 26 31 26 26 23 21
18 18 16 18 18 17 15 14 19 20 20 17 18 17 14 12 7 6 7 11 15 19 19 18 18 20 19 20 19 26 26 20 20 20 20 19 21 27 25 20 21 21 21
18 18 17 17 18 21 22 21 20 20 19 15 17 17 14 13 8 5 7 10 13 16 16 17 16 18 19 19 19 24 24 18 17 16 16 19 27 28 26 22 21 20 17
17 17 15 16 18 22 24 23 21 20 19 15 15 16 14 11 8 6 8 10 12 15 16 18 19 19 18 26 28 30 30 24 21 20 22 26 27 27 28 27 20 18 14
19 18 18 18 21 24 26 24 23 20 19 16 13 16 13 11 7 7 7 7 10 11 10 11 17 17 16 18 23 25 22 23 22 25 23 22 22 23 25 24 18 14 12
Wind_Direction
184 171 183 182 192 188 176 175 168 172 171 169 155 156 151 156 168 179 183 184 185 183 181 176 177 177 176 173 171 166 161 155 158 137 134 149 182 201 203 209 209 207 179
164 168 172 201 185 173 168 170 169 171 172 173 168 160 160 157 166 183 185 188 187 184 183 180 181 180 179 176 175 173 161 163 164 150 133 125 212 218 213 219 218 221 204
189 175 176 175 178 168 169 170 173 174 175 168 159 150 156 158 158 181 188 191 192 187 186 187 186 184 186 183 183 182 177 165 179 171 150 109 207 157 209 219 220 222 215
191 195 177 177 180 169 171 176 178 174 178 177 167 167 160 163 175 186 192 193 195 190 191 191 191 189 190 190 190 191 193 184 181 184 188 133 136 152 130 218 222 224 219
277 186 193 190 183 165 176 183 179 176 179 177 177 172 170 171 174 181 188 194 196 196 196 195 193 196 196 197 197 196 200 200 196 189 178 178 167 156 132 174 205 226 224
19 234 188 177 189 175 167 181 178 175 183 181 181 178 169 167 169 174 183 190 198 199 199 197 199 201 201 202 204 205 205 207 209 211 207 186 171 190 165 125 179 208 215
60 33 37 154 164 182 186 185 183 172 181 183 188 183 170 175 175 179 182 185 191 199 200 201 203 205 207 207 208 210 211 214 214 217 221 223 223 205 189 163 147 201 212
47 62 24 22 18 16 201 194 194 176 176 183 192 193 194 187 182 184 184 190 197 202 202 202 206 208 210 210 211 214 215 218 219 223 225 229 231 230 212 191 164 64 237
43 46 35 19 15 14 10 216 203 193 180 186 189 190 196 192 185 193 194 199 198 199 206 204 207 212 214 213 213 216 216 220 221 227 230 231 233 233 228 222 218 195 171
27 34 30 25 17 16 10 3 247 193 193 186 192 194 193 199 196 197 198 200 203 206 209 208 211 215 217 216 217 220 221 221 222 226 228 231 230 232 230 225 221 221 216
14 22 18 29 22 21 22 27 30 19 190 184 187 191 191 191 203 209 212 217 214 213 215 215 215 217 218 220 221 223 222 220 224 225 227 228 228 228 226 224 222 222 222
14 14 16 28 20 19 16 24 23 25 12 175 188 188 187 192 200 211 213 212 217 221 218 217 219 220 222 223 223 222 224 222 223 223 224 225 223 224 222 224 224 224 224
14 16 6 27 15 12 10 15 17 10 3 352 202 187 184 190 196 204 211 212 212 217 220 222 220 220 222 224 226 229 227 225 227 226 225 224 221 220 219 220 222 221 226
22 12 3 22 10 6 0 8 6 7 1 10 359 212 188 188 193 197 205 216 223 218 219 221 227 228 228 227 228 228 228 229 231 229 228 228 224 224 221 220 222 218 222
13 10 8 8 3 1 357 358 358 357 359 9 14 6 210 196 195 199 203 208 215 219 215 213 219 222 224 226 225 225 227 231 231 231 230 231 229 230 229 224 222 217 220
4 4 359 359 357 354 348 346 348 348 352 6 5 7 13 193 198 205 205 210 214 218 216 223 224 223 228 232 235 235 230 230 231 233 231 231 229 228 228 229 229 229 223
358 355 347 347 347 343 339 339 338 343 352 360 360 3 11 173 199 204 201 205 208 213 217 221 222 226 231 233 236 235 233 233 234 235 235 229 227 223 221 220 225 223 224
347 340 338 336 338 336 337 335 339 345 353 360 358 358 8 2 194 195 200 206 211 214 217 220 226 229 233 235 236 236 233 233 234 234 234 232 228 221 217 211 211 211 214
335 332 332 329 328 330 333 332 335 346 357 359 351 344 357 350 353 204 197 199 201 200 210 219 219 221 226 230 233 216 215 224 226 230 234 231 228 225 216 209 204 202 206
336 331 329 326 323 328 330 330 337 347 354 345 333 333 344 341 333 303 215 210 212 216 218 221 225 230 231 228 223 205 215 218 223 225 229 231 233 231 200 206 205 198 202
328 330 326 317 317 326 327 330 338 340 339 335 331 331 337 329 318 296 221 211 211 214 217 221 227 230 233 233 229 206 216 222 217 217 219 221 219 219 194 204 208 210 203
328 330 322 320 324 330 329 329 330 334 342 339 330 328 326 320 309 283 231 210 208 203 207 213 219 223 226 226 211 199 212 216 216 218 225 225 210 198 187 190 195 196 191
321 324 323 323 328 335 333 332 333 342 341 329 328 331 326 313 303 284 237 204 202 202 195 196 199 212 213 215 210 201 200 202 210 218 223 214 190 183 174 175 163 169 180
325 327 332 330 330 336 344 346 343 343 340 326 324 330 328 323 305 256 234 221 206 199 192 187 193 210 207 202 195 191 187 189 203 206 193 179 172 169 167 154 159 170 171
324 331 330 329 332 341 344 352 348 347 341 330 320 327 330 325 289 254 234 227 233 227 209 206 203 187 187 205 199 186 183 184 189 175 160 159 156 148 153 156 157 157 157
328 331 336 339 339 346 348 351 351 348 345 328 321 323 321 322 291 262 240 232 239 235 229 233 229 215 222 197 187 182 177 180 164 159 157 152 148 145 148 157 157 161 156